#timestamp,LO_Frequency,Hit,StdDev 
1553130015.1,286047005.2,N
1553130016.0,286047005.2,N
1553130035.8,286047005.3,N
1553130055.7,286047003.6,N
1553130075.5,286047007.2,N
1553130095.3,286047006.4,N
1553130115.2,286047008.0,N
1553130135.9,286047005.0,N
1553130155.7,286047006.0,N
1553130175.6,286047001.8,N
1553130195.4,286046998.5,N
1553130215.3,286046998.5,N
1553130235.1,286046996.9,N
1553130236.0,286046996.9,N
1553130255.8,286046997.5,N
1553130275.7,286046995.1,N
1553130295.5,286046997.0,N
1553130315.3,286046996.1,N
1553130335.2,286046995.8,N
1553130355.0,286046994.9,N
1553130355.9,286046994.9,N
1553130375.8,286046998.3,N
1553130395.6,286047000.6,N
1553130415.4,286047002.7,N
1553130435.3,286047000.6,N
1553130455.1,286047002.0,N
1553130475.8,286046999.7,N
1553130495.7,286046998.3,N
1553130515.5,286047001.0,N
1553130535.4,286047002.6,N
1553130555.2,286047003.2,N
1553130575.0,286047002.2,N
1553130575.9,286047002.2,N
1553130595.8,286047004.2,N
1553130615.6,286047004.2,N
1553130635.4,286047002.1,N
1553130655.3,286047000.5,N
1553130675.1,286047001.1,N
1553130695.9,286046999.7,N
1553130715.7,286047001.5,N
1553130735.5,286047002.9,N
1553130755.4,286047002.9,N
1553130775.2,286047002.9,N
1553130795.1,286047004.5,N
1553130796.0,286047004.5,N
1553130815.8,286047005.4,N
1553130835.6,286047005.5,N
1553130855.5,286047005.4,N
1553130875.3,286047005.7,N
1553130895.1,286047007.3,N
1553130915.9,286047006.4,N
1553130935.7,286047007.6,Y
1553130955.6,286047005.2,P
1553130975.4,286047005.5,P
1553130995.2,286047005.8,P
1553131015.1,286047003.0,N
1553131016.0,286047003.0,N
1553131035.8,286047005.5,Y
1553131055.7,286046996.9,P
1553131075.5,286046999.4,N
1553131095.3,286046998.7,N
1553131115.2,286046997.1,N
1553131135.0,286046997.9,N
1553131135.9,286046997.9,N
1553131155.7,286046997.6,N
1553131175.6,286046992.1,Y
1553131195.4,286046992.6,P
1553131215.3,286046991.0,N
1553131235.1,286046990.4,N
1553131255.8,286046992.1,N
1553131275.7,286046993.6,N
1553131295.5,286046997.4,N
1553131315.4,286046999.6,N
1553131335.2,286046998.4,N
1553131355.0,286047000.5,N
1553131355.9,286047000.5,N
1553131375.8,286046999.3,N
1553131395.6,286046998.7,N
1553131415.4,286047000.8,N
1553131435.3,286047000.5,N
1553131455.1,286047001.5,N
1553131475.9,286047000.4,N
1553131495.7,286046998.3,N
1553131515.5,286047000.2,N
1553131535.4,286047002.0,N
1553131555.2,286047000.5,N
1553131575.0,286047004.3,N
1553131575.9,286047004.3,N
1553131595.8,286047002.8,N
1553131615.6,286047002.7,N
1553131635.5,286047006.0,N
1553131655.3,286047004.1,N
1553131675.1,286047002.8,N
1553131695.9,286047000.6,N
1553131715.7,286047000.9,N
1553131735.5,286046999.0,N
1553131755.4,286047000.6,N
1553131775.2,286047002.0,N
1553131795.1,286047003.6,N
1553131796.0,286047003.6,N
1553131815.8,286047004.4,N
1553131835.6,286046998.9,N
1553131855.5,286046993.9,Y
1553131875.3,286046991.2,P
1553131895.1,286046989.5,N
1553131915.9,286046986.1,N
1553131935.7,286046983.1,N
1553131955.6,286046982.3,N
1553131975.4,286046986.8,N
1553131995.2,286046986.3,N
1553132015.1,286046985.8,N
1553132016.0,286046985.8,N
1553132035.8,286046987.3,N
1553132055.6,286046992.8,N
1553132075.5,286046994.1,N
1553132095.3,286046995.4,N
1553132115.2,286046995.8,N
1553132135.9,286046994.7,N
1553132155.7,286046992.5,N
1553132175.6,286046992.0,N
1553132195.4,286046992.9,N
1553132215.2,286046992.9,N
1553132235.1,286046993.3,N
1553132236.0,286046993.3,N
1553132255.8,286046999.3,N
1553132275.7,286046996.6,N
1553132295.5,286046990.2,N
1553132315.3,286046985.0,Y
1553132335.2,286046991.6,P
1553132355.0,286046987.3,P
1553132355.9,286046987.3,P
1553132375.8,286046988.7,Y
1553132395.6,286047001.7,P
1553132415.4,286047006.3,N
1553132435.3,286047012.2,N
1553132455.1,286047012.6,N
1553132475.9,286047014.9,N
1553132495.7,286047015.1,N
1553132515.5,286047015.6,N
1553132535.4,286047015.9,N
1553132555.2,286047015.3,N
1553132575.0,286047015.4,N
1553132576.0,286047015.4,N
1553132595.8,286047012.8,N
1553132615.6,286047016.8,N
1553132635.5,286047015.7,N
1553132655.3,286047016.0,N
1553132675.1,286047021.1,Y
1553132695.9,286047010.2,P
1553132715.7,286047010.5,P
1553132735.6,286047010.3,P
1553132755.4,286047013.9,Y
1553132775.2,286047002.9,P
1553132795.1,286047002.8,N
1553132796.0,286047002.8,N
1553132815.8,286047000.7,N
1553132835.6,286047000.9,N
1553132855.5,286047004.4,N
1553132875.3,286047002.7,N
1553132895.2,286046998.7,N
1553132915.9,286046996.5,N
1553132935.7,286046995.5,N
1553132955.6,286046995.1,N
1553132975.4,286046998.0,N
1553132995.2,286046993.9,N
1553133015.1,286046991.5,N
1553133016.0,286046991.5,N
1553133035.8,286046985.5,N
1553133055.7,286046980.8,Y
1553133075.5,286046982.7,P
1553133095.3,286046985.7,N
1553133115.2,286046991.1,N
1553133135.0,286046990.2,N
1553133135.9,286046990.2,N
1553133155.8,286046994.1,N
1553133175.6,286046994.3,N
1553133195.4,286046993.1,N
1553133215.3,286046990.8,N
1553133235.1,286046990.7,N
1553133255.8,286046988.5,N
1553133275.7,286046992.7,N
1553133295.5,286046997.8,N
1553133315.4,286046994.9,N
1553133335.2,286047011.9,N
1553133355.0,286046994.8,N
1553133355.9,286046994.8,N
1553133375.8,286046993.1,N
1553133425.6,286046992.3,E
1553133435.6,286046997.3,N
1553133455.4,286047010.7,P
1553133475.2,286047011.7,N
1553133495.1,286047011.4,N
1553133496.0,286047011.4,N
1553133515.8,286047011.2,N
1553133535.6,286047011.5,N
1553133555.5,286047011.2,N
1553133575.3,286047011.6,N
1553133595.2,286047014.0,Y
